Time,TemperatureF,DewpointF,PressureIn,WindDirection,WindDirectionDegrees,WindSpeedMPH,WindSpeedGustMPH,Humidity,HourlyPrecipIn,Conditions,Clouds,dailyrainin,SoftwareType,DateUTC
2013-02-13 00:00:00,44.2,36.5,29.92,SSE,158,0.0,0.0,74,0.02,,CLR,0.02,VWS V12.08,2013-02-13 05:00:00,
2013-02-13 00:05:00,44.2,36.8,29.92,SSE,158,0.0,0.0,75,0.02,,CLR,0.02,VWS V12.08,2013-02-13 05:05:00,
2013-02-13 00:10:00,44.2,36.8,29.93,SSE,158,0.0,0.0,75,0.02,,CLR,0.02,VWS V12.08,2013-02-13 05:10:00,
2013-02-13 00:15:00,44.2,36.8,29.92,SSE,158,0.0,0.0,75,0.02,,CLR,0.02,VWS V12.08,2013-02-13 05:15:00,
2013-02-13 00:20:00,44.2,36.8,29.91,SSE,158,0.0,0.0,75,0.00,,CLR,0.02,VWS V12.08,2013-02-13 05:20:00,
2013-02-13 00:25:00,44.1,36.7,29.92,SSE,158,0.0,0.0,75,0.00,,CLR,0.02,VWS V12.08,2013-02-13 05:25:00,
2013-02-13 00:30:00,44.1,36.7,29.91,SSE,158,0.0,0.0,75,0.00,,CLR,0.02,VWS V12.08,2013-02-13 05:30:00,
2013-02-13 00:35:00,43.9,36.8,29.90,SSE,158,0.0,0.0,76,0.00,,CLR,0.02,VWS V12.08,2013-02-13 05:35:00,
2013-02-13 00:40:00,43.9,36.8,29.88,SSE,158,0.0,0.0,76,0.00,,CLR,0.02,VWS V12.08,2013-02-13 05:40:00,
2013-02-13 00:45:00,43.9,36.8,29.88,SSE,158,0.0,0.0,76,0.00,,CLR,0.02,VWS V12.08,2013-02-13 05:45:00,
2013-02-13 00:50:00,43.5,36.8,29.88,SSE,158,0.0,0.0,77,0.02,,CLR,0.04,VWS V12.08,2013-02-13 05:50:00,
2013-02-13 00:55:00,43.5,37.1,29.90,West,270,0.0,0.0,78,0.02,,CLR,0.04,VWS V12.08,2013-02-13 05:55:00,
2013-02-13 01:00:00,43.3,37.0,29.88,West,270,0.0,0.0,78,0.02,,CLR,0.04,VWS V12.08,2013-02-13 06:00:00,
2013-02-13 01:05:00,43.3,37.0,29.88,West,270,0.0,0.0,78,0.06,,CLR,0.09,VWS V12.08,2013-02-13 06:05:00,
2013-02-13 01:10:00,43.3,37.0,29.90,West,270,0.0,0.0,78,0.06,,CLR,0.09,VWS V12.08,2013-02-13 06:10:00,
2013-02-13 01:15:00,43.3,37.0,29.90,West,270,0.0,0.0,78,0.06,,CLR,0.09,VWS V12.08,2013-02-13 06:15:00,
2013-02-13 01:20:00,43.3,37.3,29.88,West,270,0.0,0.0,79,0.06,,CLR,0.09,VWS V12.08,2013-02-13 06:20:00,
2013-02-13 01:25:00,43.0,36.9,29.88,West,270,0.0,0.0,79,0.09,,CLR,0.11,VWS V12.08,2013-02-13 06:25:00,
2013-02-13 01:30:00,43.0,36.9,29.89,West,270,0.0,0.0,79,0.09,,CLR,0.11,VWS V12.08,2013-02-13 06:30:00,
2013-02-13 01:35:00,43.0,36.9,29.88,West,270,0.0,0.0,79,0.09,,CLR,0.11,VWS V12.08,2013-02-13 06:35:00,
2013-02-13 01:40:00,43.0,36.9,29.86,West,270,0.0,0.0,79,0.09,,CLR,0.13,VWS V12.08,2013-02-13 06:40:00,
2013-02-13 01:45:00,43.0,36.9,29.86,SSW,202,0.0,0.0,79,0.11,,CLR,0.13,VWS V12.08,2013-02-13 06:45:00,
2013-02-13 01:50:00,43.0,36.9,29.86,SSW,202,0.0,0.0,79,0.09,,CLR,0.13,VWS V12.08,2013-02-13 06:50:00,
2013-02-13 01:55:00,42.6,36.6,29.87,East,90,0.0,0.0,79,0.09,,CLR,0.19,VWS V12.08,2013-02-13 06:55:00,
2013-02-13 02:00:00,42.6,36.6,29.87,East,90,0.0,0.0,79,0.15,,CLR,0.19,VWS V12.08,2013-02-13 07:00:00,
2013-02-13 02:05:00,42.6,36.9,29.88,East,90,0.0,0.0,80,0.13,,CLR,0.22,VWS V12.08,2013-02-13 07:05:00,
2013-02-13 02:10:00,42.6,36.9,29.86,East,90,0.0,0.0,80,0.13,,CLR,0.22,VWS V12.08,2013-02-13 07:10:00,
2013-02-13 02:15:00,42.6,36.9,29.86,East,90,0.0,0.0,80,0.13,,CLR,0.22,VWS V12.08,2013-02-13 07:15:00,
2013-02-13 02:20:00,42.6,36.9,29.86,East,90,0.0,0.0,80,0.13,,CLR,0.22,VWS V12.08,2013-02-13 07:20:00,
2013-02-13 02:25:00,42.6,36.9,29.86,East,90,0.0,0.0,80,0.11,,CLR,0.22,VWS V12.08,2013-02-13 07:25:00,
2013-02-13 02:30:00,42.6,36.9,29.85,East,90,0.0,0.0,80,0.11,,CLR,0.22,VWS V12.08,2013-02-13 07:30:00,
2013-02-13 02:35:00,42.6,36.9,29.85,East,90,0.0,0.0,80,0.11,,CLR,0.22,VWS V12.08,2013-02-13 07:35:00,
2013-02-13 02:40:00,42.6,36.9,29.84,East,90,0.0,0.0,80,0.11,,CLR,0.24,VWS V12.08,2013-02-13 07:40:00,
2013-02-13 02:45:00,42.6,36.9,29.84,East,90,0.0,0.0,80,0.11,,CLR,0.24,VWS V12.08,2013-02-13 07:45:00,
2013-02-13 02:50:00,42.6,36.9,29.84,East,90,0.0,0.0,80,0.11,,CLR,0.24,VWS V12.08,2013-02-13 07:50:00,
2013-02-13 02:55:00,42.6,36.9,29.83,East,90,0.0,0.0,80,0.04,,CLR,0.24,VWS V12.08,2013-02-13 07:55:00,
2013-02-13 03:00:00,42.6,36.9,29.83,East,90,0.0,0.0,80,0.02,,CLR,0.24,VWS V12.08,2013-02-13 08:00:00,
2013-02-13 03:05:00,42.6,36.9,29.83,East,90,0.0,0.0,80,0.02,,CLR,0.24,VWS V12.08,2013-02-13 08:05:00,
2013-02-13 03:10:00,42.6,36.9,29.83,East,90,0.0,0.0,80,0.02,,CLR,0.24,VWS V12.08,2013-02-13 08:10:00,
2013-02-13 03:15:00,42.6,36.9,29.83,East,90,0.0,0.0,80,0.02,,CLR,0.24,VWS V12.08,2013-02-13 08:15:00,
2013-02-13 03:20:00,42.6,36.9,29.83,East,90,0.0,0.0,80,0.02,,CLR,0.24,VWS V12.08,2013-02-13 08:20:00,
2013-02-13 03:25:00,42.6,37.2,29.83,East,90,0.0,0.0,81,0.02,,CLR,0.24,VWS V12.08,2013-02-13 08:25:00,
2013-02-13 03:30:00,42.6,36.9,29.83,ESE,112,0.0,0.0,80,0.02,,CLR,0.24,VWS V12.08,2013-02-13 08:30:00,
2013-02-13 03:35:00,42.6,36.9,29.83,East,90,0.0,0.0,80,0.02,,CLR,0.24,VWS V12.08,2013-02-13 08:35:00,
2013-02-13 03:40:00,42.6,36.9,29.83,East,90,0.0,0.0,80,0.02,,CLR,0.24,VWS V12.08,2013-02-13 08:40:00,
2013-02-13 03:45:00,42.6,36.9,29.83,East,90,0.0,0.0,80,0.00,,CLR,0.24,VWS V12.08,2013-02-13 08:45:00,
2013-02-13 03:50:00,42.6,36.9,29.83,East,90,0.0,0.0,80,0.00,,CLR,0.24,VWS V12.08,2013-02-13 08:50:00,
2013-02-13 03:55:00,42.6,37.2,29.82,East,90,0.0,0.0,81,0.00,,CLR,0.24,VWS V12.08,2013-02-13 08:55:00,
2013-02-13 04:00:00,42.4,37.0,29.82,East,90,0.0,0.0,81,0.00,,CLR,0.24,VWS V12.08,2013-02-13 09:00:00,
2013-02-13 04:05:00,42.4,37.0,29.82,East,90,0.0,0.0,81,0.00,,CLR,0.24,VWS V12.08,2013-02-13 09:05:00,
2013-02-13 04:10:00,42.4,37.0,29.82,East,90,0.0,0.0,81,0.00,,CLR,0.24,VWS V12.08,2013-02-13 09:10:00,
2013-02-13 04:15:00,42.4,37.0,29.81,East,90,0.0,0.0,81,0.00,,CLR,0.24,VWS V12.08,2013-02-13 09:15:00,
2013-02-13 04:20:00,42.4,37.0,29.81,East,90,0.0,0.0,81,0.00,,CLR,0.24,VWS V12.08,2013-02-13 09:20:00,
2013-02-13 04:25:00,42.4,37.0,29.81,East,90,0.0,0.0,81,0.00,,CLR,0.24,VWS V12.08,2013-02-13 09:25:00,
2013-02-13 04:30:00,42.4,37.0,29.80,ESE,112,0.0,0.0,81,0.00,,CLR,0.24,VWS V12.08,2013-02-13 09:30:00,
2013-02-13 04:35:00,42.3,36.9,29.81,ESE,112,0.0,0.0,81,0.00,,CLR,0.24,VWS V12.08,2013-02-13 09:35:00,
2013-02-13 04:40:00,42.4,37.0,29.80,ESE,112,0.0,0.0,81,0.00,,CLR,0.24,VWS V12.08,2013-02-13 09:40:00,
2013-02-13 04:45:00,42.3,36.9,29.81,ESE,112,0.0,0.0,81,0.00,,CLR,0.24,VWS V12.08,2013-02-13 09:45:00,
2013-02-13 04:50:00,42.3,36.9,29.81,ESE,112,0.0,0.0,81,0.00,,CLR,0.24,VWS V12.08,2013-02-13 09:50:00,
2013-02-13 04:55:00,42.1,37.0,29.81,ESE,112,0.0,0.0,82,0.00,,CLR,0.24,VWS V12.08,2013-02-13 09:55:00,
2013-02-13 05:00:00,42.1,37.0,29.81,ESE,112,0.0,0.0,82,0.00,,CLR,0.24,VWS V12.08,2013-02-13 10:00:00,
2013-02-13 05:05:00,42.4,37.3,29.80,ESE,112,0.0,0.0,82,0.00,,CLR,0.24,VWS V12.08,2013-02-13 10:05:00,
2013-02-13 05:10:00,42.4,37.3,29.80,ESE,112,0.0,0.0,82,0.00,,CLR,0.24,VWS V12.08,2013-02-13 10:10:00,
2013-02-13 05:15:00,42.4,37.3,29.80,ESE,112,0.0,0.0,82,0.00,,CLR,0.24,VWS V12.08,2013-02-13 10:15:00,
2013-02-13 05:20:00,42.4,37.3,29.81,ESE,112,0.0,0.0,82,0.00,,CLR,0.24,VWS V12.08,2013-02-13 10:20:00,
2013-02-13 05:25:00,42.3,37.2,29.81,ESE,112,0.0,0.0,82,0.00,,CLR,0.24,VWS V12.08,2013-02-13 10:25:00,
2013-02-13 05:30:00,42.1,37.0,29.80,ESE,112,0.0,0.0,82,0.00,,CLR,0.24,VWS V12.08,2013-02-13 10:30:00,
2013-02-13 05:35:00,42.3,37.2,29.80,ESE,112,0.0,0.0,82,0.00,,CLR,0.24,VWS V12.08,2013-02-13 10:35:00,
2013-02-13 05:40:00,42.4,37.3,29.80,ESE,112,0.0,0.0,82,0.00,,CLR,0.24,VWS V12.08,2013-02-13 10:40:00,
2013-02-13 05:45:00,42.4,37.3,29.80,ESE,112,0.0,0.0,82,0.00,,CLR,0.24,VWS V12.08,2013-02-13 10:45:00,
2013-02-13 05:50:00,42.4,37.3,29.80,ESE,112,0.0,0.0,82,0.00,,CLR,0.24,VWS V12.08,2013-02-13 10:50:00,
2013-02-13 05:55:00,42.3,37.5,29.79,East,90,0.0,0.0,83,0.00,,CLR,0.24,VWS V12.08,2013-02-13 10:55:00,
2013-02-13 06:00:00,42.3,37.5,29.80,East,90,0.0,0.0,83,0.00,,CLR,0.24,VWS V12.08,2013-02-13 11:00:00,
2013-02-13 06:05:00,42.3,37.2,29.80,East,90,0.0,0.0,82,0.00,,CLR,0.24,VWS V12.08,2013-02-13 11:05:00,
2013-02-13 06:10:00,42.4,37.3,29.79,East,90,0.0,0.0,82,0.00,,CLR,0.24,VWS V12.08,2013-02-13 11:10:00,
2013-02-13 06:15:00,42.4,37.3,29.79,East,90,0.0,0.0,82,0.00,,CLR,0.24,VWS V12.08,2013-02-13 11:15:00,
2013-02-13 06:20:00,42.1,37.0,29.80,East,90,0.0,0.0,82,0.00,,CLR,0.24,VWS V12.08,2013-02-13 11:20:00,
2013-02-13 06:25:00,42.1,37.0,29.79,East,90,0.0,0.0,82,0.00,,CLR,0.24,VWS V12.08,2013-02-13 11:25:00,
2013-02-13 06:30:00,42.1,37.0,29.79,East,90,0.0,0.0,82,0.00,,CLR,0.24,VWS V12.08,2013-02-13 11:30:00,
2013-02-13 06:35:00,42.3,37.2,29.79,ESE,112,0.0,0.0,82,0.00,,CLR,0.24,VWS V12.08,2013-02-13 11:35:00,
2013-02-13 06:40:00,42.3,37.2,29.79,ESE,112,0.0,0.0,82,0.00,,CLR,0.24,VWS V12.08,2013-02-13 11:40:00,
2013-02-13 06:45:00,42.3,37.2,29.78,ESE,112,0.0,0.0,82,0.00,,CLR,0.24,VWS V12.08,2013-02-13 11:45:00,
2013-02-13 06:50:00,42.3,37.2,29.78,East,90,0.0,0.0,82,0.00,,CLR,0.24,VWS V12.08,2013-02-13 11:50:00,
2013-02-13 06:55:00,42.1,37.0,29.78,East,90,0.4,0.4,82,0.02,,CLR,0.26,VWS V12.08,2013-02-13 11:55:00,
2013-02-13 07:00:00,42.1,37.0,29.78,East,90,0.4,0.4,82,0.02,,CLR,0.26,VWS V12.08,2013-02-13 12:00:00,
2013-02-13 07:05:00,42.1,37.0,29.76,East,90,0.0,0.4,82,0.02,,CLR,0.26,VWS V12.08,2013-02-13 12:05:00,
2013-02-13 07:10:00,42.1,37.0,29.77,East,90,0.0,0.4,82,0.02,,CLR,0.26,VWS V12.08,2013-02-13 12:10:00,
2013-02-13 07:15:00,42.1,37.0,29.77,East,90,0.0,0.4,82,0.02,,CLR,0.26,VWS V12.08,2013-02-13 12:15:00,
2013-02-13 07:21:00,42.1,37.3,29.77,East,90,0.0,0.0,83,0.02,,CLR,0.26,VWS V12.08,2013-02-13 12:21:00,
2013-02-13 07:26:00,42.1,37.3,29.77,East,90,0.0,0.0,83,0.02,,CLR,0.26,VWS V12.08,2013-02-13 12:26:00,
2013-02-13 07:31:00,42.1,37.3,29.78,East,90,0.0,0.0,83,0.02,,CLR,0.26,VWS V12.08,2013-02-13 12:31:00,
2013-02-13 07:36:00,42.1,37.3,29.79,East,90,0.0,0.0,83,0.02,,CLR,0.26,VWS V12.08,2013-02-13 12:36:00,
2013-02-13 07:41:00,42.1,37.3,29.78,East,90,0.0,0.0,83,0.02,,CLR,0.26,VWS V12.08,2013-02-13 12:41:00,
2013-02-13 07:46:00,42.1,37.3,29.78,ESE,112,0.0,0.0,83,0.02,,CLR,0.26,VWS V12.08,2013-02-13 12:46:00,
2013-02-13 07:51:00,42.1,37.6,29.80,ESE,112,0.0,0.0,84,0.02,,CLR,0.26,VWS V12.08,2013-02-13 12:51:00,
2013-02-13 07:56:00,42.1,37.6,29.79,ESE,112,0.0,0.0,84,0.00,,CLR,0.26,VWS V12.08,2013-02-13 12:56:00,
2013-02-13 08:01:00,42.1,37.6,29.79,ESE,112,0.0,0.0,84,0.00,,CLR,0.26,VWS V12.08,2013-02-13 13:01:00,
2013-02-13 08:06:00,42.1,37.6,29.78,ESE,112,0.0,0.0,84,0.00,,CLR,0.26,VWS V12.08,2013-02-13 13:06:00,
2013-02-13 08:11:00,42.3,37.8,29.78,ESE,112,0.0,0.0,84,0.00,,CLR,0.26,VWS V12.08,2013-02-13 13:11:00,
2013-02-13 08:16:00,42.4,38.0,29.80,ESE,112,0.0,0.0,84,0.00,,CLR,0.26,VWS V12.08,2013-02-13 13:16:00,
2013-02-13 08:21:00,42.4,38.0,29.80,ESE,112,0.0,0.0,84,0.00,,CLR,0.26,VWS V12.08,2013-02-13 13:21:00,
2013-02-13 08:26:00,42.4,38.0,29.78,ESE,112,0.0,0.0,84,0.00,,CLR,0.26,VWS V12.08,2013-02-13 13:26:00,
2013-02-13 08:31:00,42.4,38.0,29.77,East,90,0.0,0.0,84,0.00,,CLR,0.26,VWS V12.08,2013-02-13 13:31:00,
2013-02-13 08:36:00,42.4,38.0,29.77,East,90,0.0,0.0,84,0.00,,CLR,0.26,VWS V12.08,2013-02-13 13:36:00,
2013-02-13 08:41:00,42.4,38.0,29.77,East,90,0.0,0.0,84,0.00,,CLR,0.26,VWS V12.08,2013-02-13 13:41:00,
2013-02-13 08:46:00,42.4,38.0,29.76,East,90,0.0,0.0,84,0.00,,CLR,0.26,VWS V12.08,2013-02-13 13:46:00,
2013-02-13 08:51:00,42.6,38.1,29.76,East,90,0.0,0.0,84,0.00,,CLR,0.26,VWS V12.08,2013-02-13 13:51:00,
2013-02-13 08:56:00,42.8,38.3,29.77,East,90,0.0,0.0,84,0.00,,CLR,0.26,VWS V12.08,2013-02-13 13:56:00,
2013-02-13 09:01:00,42.8,38.3,29.76,East,90,0.0,0.0,84,0.00,,CLR,0.26,VWS V12.08,2013-02-13 14:01:00,
2013-02-13 09:06:00,43.0,38.2,29.76,East,90,0.0,0.0,83,0.00,,CLR,0.26,VWS V12.08,2013-02-13 14:06:00,
2013-02-13 09:11:00,43.0,38.5,29.77,North,0,0.0,0.0,84,0.00,,CLR,0.26,VWS V12.08,2013-02-13 14:11:00,
2013-02-13 09:16:00,43.0,38.5,29.75,North,0,0.0,0.0,84,0.00,,CLR,0.26,VWS V12.08,2013-02-13 14:16:00,
2013-02-13 09:21:00,43.3,38.8,29.76,North,0,0.0,0.0,84,0.00,,CLR,0.26,VWS V12.08,2013-02-13 14:21:00,
2013-02-13 09:26:00,43.3,38.8,29.76,North,0,0.0,0.0,84,0.00,,CLR,0.26,VWS V12.08,2013-02-13 14:26:00,
2013-02-13 09:31:00,43.3,38.5,29.76,NNE,22,0.0,0.0,83,0.00,,CLR,0.26,VWS V12.08,2013-02-13 14:31:00,
2013-02-13 09:36:00,43.3,38.5,29.77,NNE,22,0.0,0.0,83,0.00,,CLR,0.26,VWS V12.08,2013-02-13 14:36:00,
2013-02-13 09:41:00,43.3,38.5,29.78,NNE,22,0.0,0.0,83,0.00,,CLR,0.26,VWS V12.08,2013-02-13 14:41:00,
2013-02-13 09:46:00,43.2,38.4,29.77,NNE,22,0.0,0.0,83,0.00,,CLR,0.26,VWS V12.08,2013-02-13 14:46:00,
2013-02-13 09:51:00,43.3,38.5,29.76,ENE,68,0.0,0.7,83,0.00,,CLR,0.26,VWS V12.08,2013-02-13 14:51:00,
2013-02-13 09:56:00,43.3,38.5,29.77,ENE,68,0.0,0.7,83,0.00,,CLR,0.26,VWS V12.08,2013-02-13 14:56:00,
2013-02-13 10:01:00,43.3,38.8,29.76,ENE,68,0.0,0.0,84,0.00,,CLR,0.26,VWS V12.08,2013-02-13 15:01:00,
2013-02-13 10:06:00,43.5,39.0,29.77,ENE,68,0.0,0.0,84,0.00,,CLR,0.26,VWS V12.08,2013-02-13 15:06:00,
2013-02-13 10:11:00,43.5,39.0,29.76,ENE,68,0.0,0.0,84,0.00,,CLR,0.26,VWS V12.08,2013-02-13 15:11:00,
2013-02-13 10:16:00,43.5,39.0,29.76,ENE,68,0.0,0.0,84,0.00,,CLR,0.26,VWS V12.08,2013-02-13 15:16:00,
2013-02-13 10:21:00,43.5,39.0,29.76,ENE,68,0.0,0.0,84,0.00,,CLR,0.26,VWS V12.08,2013-02-13 15:21:00,
2013-02-13 10:26:00,43.5,39.0,29.75,ENE,68,0.0,0.0,84,0.00,,CLR,0.26,VWS V12.08,2013-02-13 15:26:00,
2013-02-13 10:31:00,43.5,39.0,29.77,ENE,68,0.0,0.0,84,0.00,,CLR,0.26,VWS V12.08,2013-02-13 15:31:00,
2013-02-13 10:36:00,43.7,39.2,29.76,ENE,68,0.0,0.0,84,0.00,,CLR,0.26,VWS V12.08,2013-02-13 15:36:00,
2013-02-13 10:41:00,43.9,39.4,29.75,ENE,68,0.0,0.0,84,0.02,,CLR,0.28,VWS V12.08,2013-02-13 15:41:00,
2013-02-13 10:46:00,43.9,39.1,29.74,ENE,68,0.0,0.0,83,0.02,,CLR,0.28,VWS V12.08,2013-02-13 15:46:00,
2013-02-13 10:51:00,43.9,39.1,29.75,ENE,68,0.0,0.0,83,0.02,,CLR,0.28,VWS V12.08,2013-02-13 15:51:00,
2013-02-13 10:56:00,44.1,39.2,29.74,ENE,68,0.0,0.0,83,0.02,,CLR,0.28,VWS V12.08,2013-02-13 15:56:00,
2013-02-13 11:01:00,44.1,39.2,29.74,ENE,68,0.0,0.0,83,0.02,,CLR,0.28,VWS V12.08,2013-02-13 16:01:00,
2013-02-13 11:06:00,44.2,39.4,29.73,ENE,68,0.0,0.0,83,0.02,,CLR,0.28,VWS V12.08,2013-02-13 16:06:00,
2013-02-13 11:11:00,44.2,39.4,29.73,ENE,68,0.0,0.0,83,0.02,,CLR,0.28,VWS V12.08,2013-02-13 16:11:00,
2013-02-13 11:16:00,44.4,39.9,29.73,ENE,68,0.0,0.0,84,0.02,,CLR,0.28,VWS V12.08,2013-02-13 16:16:00,
2013-02-13 11:21:00,44.8,39.9,29.73,ENE,68,0.0,0.0,83,0.02,,CLR,0.28,VWS V12.08,2013-02-13 16:21:00,
2013-02-13 11:26:00,44.8,39.9,29.73,ENE,68,0.0,0.0,83,0.02,,CLR,0.28,VWS V12.08,2013-02-13 16:26:00,
2013-02-13 11:31:00,44.6,39.8,29.72,ENE,68,0.0,0.0,83,0.02,,CLR,0.28,VWS V12.08,2013-02-13 16:31:00,
2013-02-13 11:36:00,45.0,40.1,29.72,ENE,68,0.0,0.0,83,0.02,,CLR,0.28,VWS V12.08,2013-02-13 16:36:00,
2013-02-13 11:41:00,44.8,39.9,29.72,ENE,68,0.0,0.0,83,0.00,,CLR,0.28,VWS V12.08,2013-02-13 16:41:00,
2013-02-13 11:46:00,44.8,39.9,29.72,ENE,68,0.0,0.0,83,0.00,,CLR,0.28,VWS V12.08,2013-02-13 16:46:00,
2013-02-13 11:51:00,44.8,39.6,29.70,ENE,68,0.0,0.0,82,0.00,,CLR,0.28,VWS V12.08,2013-02-13 16:51:00,
2013-02-13 11:56:00,44.6,39.5,29.71,ENE,68,0.0,0.0,82,0.00,,CLR,0.28,VWS V12.08,2013-02-13 16:56:00,
2013-02-13 12:01:00,44.4,39.3,29.71,ENE,68,0.0,0.0,82,0.00,,CLR,0.28,VWS V12.08,2013-02-13 17:01:00,
2013-02-13 12:06:00,44.4,39.3,29.71,ENE,68,0.0,0.0,82,0.00,,CLR,0.28,VWS V12.08,2013-02-13 17:06:00,
2013-02-13 12:11:00,44.6,39.8,29.70,ENE,68,0.0,0.0,83,0.00,,CLR,0.28,VWS V12.08,2013-02-13 17:11:00,
2013-02-13 12:16:00,45.0,40.1,29.70,ENE,68,0.0,0.0,83,0.00,,CLR,0.28,VWS V12.08,2013-02-13 17:16:00,
2013-02-13 12:21:00,45.0,40.1,29.70,ENE,68,0.0,0.0,83,0.00,,CLR,0.28,VWS V12.08,2013-02-13 17:21:00,
2013-02-13 12:26:00,45.1,40.3,29.69,ENE,68,0.0,0.0,83,0.00,,CLR,0.28,VWS V12.08,2013-02-13 17:26:00,
2013-02-13 12:31:00,45.1,40.3,29.69,ENE,68,0.0,0.0,83,0.00,,CLR,0.28,VWS V12.08,2013-02-13 17:31:00,
2013-02-13 12:36:00,45.1,40.0,29.69,ENE,68,0.0,0.0,82,0.00,,CLR,0.28,VWS V12.08,2013-02-13 17:36:00,
2013-02-13 12:41:00,45.3,40.2,29.69,ENE,68,0.0,0.0,82,0.00,,CLR,0.28,VWS V12.08,2013-02-13 17:41:00,
2013-02-13 12:46:00,45.3,40.2,29.69,ENE,68,0.0,0.0,82,0.00,,CLR,0.28,VWS V12.08,2013-02-13 17:46:00,
2013-02-13 12:51:00,45.3,40.2,29.67,ENE,68,0.0,0.0,82,0.00,,CLR,0.28,VWS V12.08,2013-02-13 17:51:00,
2013-02-13 12:56:00,45.1,40.0,29.67,ENE,68,0.0,0.0,82,0.02,,CLR,0.30,VWS V12.08,2013-02-13 17:56:00,
2013-02-13 13:01:00,45.1,40.0,29.67,ENE,68,0.0,0.0,82,0.02,,CLR,0.30,VWS V12.08,2013-02-13 18:01:00,
2013-02-13 13:06:00,45.3,40.2,29.66,ENE,68,0.0,0.0,82,0.02,,CLR,0.30,VWS V12.08,2013-02-13 18:06:00,
2013-02-13 13:11:00,45.5,40.3,29.66,ENE,68,0.0,0.0,82,0.02,,CLR,0.30,VWS V12.08,2013-02-13 18:11:00,
2013-02-13 13:16:00,45.3,40.2,29.66,ENE,68,0.0,0.0,82,0.02,,CLR,0.30,VWS V12.08,2013-02-13 18:16:00,
2013-02-13 13:21:00,45.3,40.2,29.66,ENE,68,0.0,0.0,82,0.02,,CLR,0.30,VWS V12.08,2013-02-13 18:21:00,
2013-02-13 13:26:00,45.3,40.2,29.66,ENE,68,0.0,0.0,82,0.02,,CLR,0.30,VWS V12.08,2013-02-13 18:26:00,
2013-02-13 13:31:00,45.3,40.2,29.65,ENE,68,0.0,0.0,82,0.02,,CLR,0.30,VWS V12.08,2013-02-13 18:31:00,
2013-02-13 13:36:00,45.3,40.2,29.65,West,270,0.0,0.0,82,0.02,,CLR,0.30,VWS V12.08,2013-02-13 18:36:00,
2013-02-13 13:41:00,45.3,40.2,29.65,West,270,0.0,0.0,82,0.02,,CLR,0.30,VWS V12.08,2013-02-13 18:41:00,
2013-02-13 13:46:00,45.3,40.2,29.65,West,270,0.0,0.0,82,0.02,,CLR,0.30,VWS V12.08,2013-02-13 18:46:00,
2013-02-13 13:51:00,45.3,40.2,29.65,West,270,0.0,0.0,82,0.02,,CLR,0.30,VWS V12.08,2013-02-13 18:51:00,
2013-02-13 13:56:00,45.3,40.2,29.65,West,270,0.0,0.0,82,0.00,,CLR,0.30,VWS V12.08,2013-02-13 18:56:00,
2013-02-13 14:01:00,45.3,40.2,29.64,West,270,0.0,0.0,82,0.00,,CLR,0.30,VWS V12.08,2013-02-13 19:01:00,
2013-02-13 14:06:00,45.3,40.5,29.64,West,270,0.0,0.0,83,0.00,,CLR,0.30,VWS V12.08,2013-02-13 19:06:00,
2013-02-13 14:11:00,45.3,40.5,29.64,West,270,0.0,0.0,83,0.00,,CLR,0.30,VWS V12.08,2013-02-13 19:11:00,
2013-02-13 14:16:00,45.7,40.8,29.64,West,270,0.0,0.0,83,0.00,,CLR,0.30,VWS V12.08,2013-02-13 19:16:00,
2013-02-13 14:21:00,45.7,40.8,29.65,West,270,0.0,0.0,83,0.00,,CLR,0.30,VWS V12.08,2013-02-13 19:21:00,
2013-02-13 14:26:00,46.0,40.9,29.65,NW,315,2.5,2.5,82,0.00,,CLR,0.30,VWS V12.08,2013-02-13 19:26:00,
2013-02-13 14:31:00,45.7,40.5,29.65,WNW,292,0.0,2.5,82,0.00,,CLR,0.30,VWS V12.08,2013-02-13 19:31:00,
2013-02-13 14:36:00,45.7,40.5,29.64,West,270,0.0,2.5,82,0.00,,CLR,0.30,VWS V12.08,2013-02-13 19:36:00,
2013-02-13 14:41:00,45.5,40.3,29.64,West,270,0.0,0.0,82,0.00,,CLR,0.30,VWS V12.08,2013-02-13 19:41:00,
2013-02-13 14:46:00,45.5,40.3,29.64,West,270,0.0,0.0,82,0.00,,CLR,0.30,VWS V12.08,2013-02-13 19:46:00,
2013-02-13 14:51:00,45.5,40.7,29.64,West,270,0.0,0.0,83,0.00,,CLR,0.30,VWS V12.08,2013-02-13 19:51:00,
2013-02-13 14:56:00,45.5,40.7,29.64,West,270,0.0,0.0,83,0.00,,CLR,0.30,VWS V12.08,2013-02-13 19:56:00,
2013-02-13 15:01:00,45.7,40.8,29.65,West,270,0.0,0.0,83,0.00,,CLR,0.30,VWS V12.08,2013-02-13 20:01:00,
2013-02-13 15:06:00,45.7,40.8,29.64,West,270,0.0,0.0,83,0.00,,CLR,0.30,VWS V12.08,2013-02-13 20:06:00,
2013-02-13 15:11:00,45.7,40.8,29.65,WNW,292,0.0,2.0,83,0.00,,CLR,0.30,VWS V12.08,2013-02-13 20:11:00,
2013-02-13 15:16:00,45.7,40.8,29.64,WNW,292,1.1,2.0,83,0.00,,CLR,0.30,VWS V12.08,2013-02-13 20:16:00,
2013-02-13 15:21:00,45.7,40.8,29.65,WNW,292,0.0,0.0,83,0.00,,CLR,0.30,VWS V12.08,2013-02-13 20:21:00,
2013-02-13 15:26:00,45.3,40.2,29.65,WNW,292,0.0,0.0,82,0.00,,CLR,0.30,VWS V12.08,2013-02-13 20:26:00,
2013-02-13 15:31:00,45.3,40.2,29.64,WNW,292,0.0,0.0,82,0.00,,CLR,0.30,VWS V12.08,2013-02-13 20:31:00,
2013-02-13 15:36:00,45.3,40.2,29.65,WNW,292,0.0,0.0,82,0.00,,CLR,0.30,VWS V12.08,2013-02-13 20:36:00,
2013-02-13 15:41:00,45.3,40.2,29.65,North,0,0.0,0.0,82,0.00,,CLR,0.30,VWS V12.08,2013-02-13 20:41:00,
2013-02-13 15:46:00,45.5,40.7,29.64,NW,315,0.0,0.0,83,0.00,,CLR,0.30,VWS V12.08,2013-02-13 20:46:00,
2013-02-13 15:51:00,45.5,40.7,29.64,NNE,22,0.0,0.0,83,0.00,,CLR,0.30,VWS V12.08,2013-02-13 20:51:00,
2013-02-13 15:56:00,45.7,40.8,29.65,East,90,0.0,0.0,83,0.00,,CLR,0.30,VWS V12.08,2013-02-13 20:56:00,
2013-02-13 16:01:00,45.7,40.8,29.65,West,270,0.0,0.0,83,0.00,,CLR,0.30,VWS V12.08,2013-02-13 21:01:00,
2013-02-13 16:06:00,45.7,40.8,29.65,West,270,0.0,0.0,83,0.00,,CLR,0.30,VWS V12.08,2013-02-13 21:06:00,
2013-02-13 16:11:00,45.7,40.8,29.64,West,270,0.0,0.0,83,0.00,,CLR,0.30,VWS V12.08,2013-02-13 21:11:00,
2013-02-13 16:16:00,46.2,41.3,29.64,SSE,158,0.0,0.0,83,0.00,,CLR,0.30,VWS V12.08,2013-02-13 21:16:00,
2013-02-13 16:21:00,46.6,41.7,29.64,SSW,202,0.0,0.0,83,0.00,,CLR,0.30,VWS V12.08,2013-02-13 21:21:00,
2013-02-13 16:26:00,46.6,41.7,29.65,SSE,158,0.0,0.0,83,0.00,,CLR,0.30,VWS V12.08,2013-02-13 21:26:00,
2013-02-13 16:31:00,46.6,41.4,29.65,SSE,158,0.0,0.0,82,0.00,,CLR,0.30,VWS V12.08,2013-02-13 21:31:00,
2013-02-13 16:36:00,46.6,41.4,29.65,SE,135,0.0,0.0,82,0.00,,CLR,0.30,VWS V12.08,2013-02-13 21:36:00,
2013-02-13 16:41:00,46.6,41.4,29.65,SE,135,0.0,0.0,82,0.00,,CLR,0.30,VWS V12.08,2013-02-13 21:41:00,
2013-02-13 16:46:00,46.6,41.4,29.65,WNW,292,0.0,0.0,82,0.00,,CLR,0.30,VWS V12.08,2013-02-13 21:46:00,
2013-02-13 16:51:00,46.6,41.4,29.66,NNW,338,0.0,0.0,82,0.00,,CLR,0.30,VWS V12.08,2013-02-13 21:51:00,
2013-02-13 16:56:00,46.6,41.4,29.66,North,0,0.0,0.0,82,0.00,,CLR,0.30,VWS V12.08,2013-02-13 21:56:00,
2013-02-13 17:01:00,46.4,41.2,29.66,NW,315,3.4,3.4,82,0.00,,CLR,0.30,VWS V12.08,2013-02-13 22:01:00,
2013-02-13 17:06:00,46.4,41.5,29.66,NW,315,3.4,3.4,83,0.00,,CLR,0.30,VWS V12.08,2013-02-13 22:06:00,
2013-02-13 17:11:00,46.2,41.3,29.66,NW,315,2.9,3.4,83,0.00,,CLR,0.30,VWS V12.08,2013-02-13 22:11:00,
2013-02-13 17:16:00,46.2,41.3,29.66,WNW,292,0.0,3.4,83,0.00,,CLR,0.30,VWS V12.08,2013-02-13 22:16:00,
2013-02-13 17:21:00,46.2,41.3,29.67,NW,315,0.0,0.0,83,0.00,,CLR,0.30,VWS V12.08,2013-02-13 22:21:00,
2013-02-13 17:26:00,46.2,41.3,29.66,NW,315,0.0,0.0,83,0.00,,CLR,0.30,VWS V12.08,2013-02-13 22:26:00,
2013-02-13 17:31:00,45.7,40.8,29.66,ENE,68,0.0,0.0,83,0.00,,CLR,0.30,VWS V12.08,2013-02-13 22:31:00,
2013-02-13 17:36:00,45.7,40.8,29.66,ENE,68,0.0,0.0,83,0.00,,CLR,0.30,VWS V12.08,2013-02-13 22:36:00,
2013-02-13 17:41:00,45.3,40.2,29.66,South,180,0.0,0.0,82,0.00,,CLR,0.30,VWS V12.08,2013-02-13 22:41:00,
2013-02-13 17:46:00,45.1,40.3,29.68,WNW,292,0.0,0.0,83,0.00,,CLR,0.30,VWS V12.08,2013-02-13 22:46:00,
2013-02-13 17:51:00,45.1,40.3,29.67,WNW,292,0.0,0.0,83,0.00,,CLR,0.30,VWS V12.08,2013-02-13 22:51:00,
2013-02-13 17:56:00,45.0,40.1,29.68,SW,225,0.0,0.0,83,0.00,,CLR,0.30,VWS V12.08,2013-02-13 22:56:00,
2013-02-13 18:01:00,45.0,40.1,29.68,SW,225,0.0,0.0,83,0.00,,CLR,0.30,VWS V12.08,2013-02-13 23:01:00,
2013-02-13 18:07:00,44.4,39.6,29.69,SE,135,1.1,1.1,83,0.00,,CLR,0.30,VWS V12.08,2013-02-13 23:07:00,
2013-02-13 18:12:00,44.2,39.4,29.70,ESE,112,0.0,1.1,83,0.00,,CLR,0.30,VWS V12.08,2013-02-13 23:12:00,
2013-02-13 18:17:00,44.1,39.2,29.70,ESE,112,0.0,1.1,83,0.00,,CLR,0.30,VWS V12.08,2013-02-13 23:17:00,
2013-02-13 18:22:00,44.1,39.2,29.71,SE,135,0.0,0.0,83,0.00,,CLR,0.30,VWS V12.08,2013-02-13 23:22:00,
2013-02-13 18:27:00,43.9,39.4,29.71,SW,225,0.0,0.0,84,0.00,,CLR,0.30,VWS V12.08,2013-02-13 23:27:00,
2013-02-13 18:32:00,43.9,39.4,29.72,SW,225,0.0,0.0,84,0.00,,CLR,0.30,VWS V12.08,2013-02-13 23:32:00,
2013-02-13 18:37:00,43.9,39.4,29.72,SSW,202,0.0,0.0,84,0.00,,CLR,0.30,VWS V12.08,2013-02-13 23:37:00,
2013-02-13 18:42:00,44.1,39.5,29.72,SW,225,0.0,0.0,84,0.00,,CLR,0.30,VWS V12.08,2013-02-13 23:42:00,
2013-02-13 18:47:00,44.1,39.5,29.73,SW,225,0.0,0.0,84,0.00,,CLR,0.30,VWS V12.08,2013-02-13 23:47:00,
2013-02-13 18:52:00,44.1,39.5,29.74,SW,225,0.0,0.0,84,0.00,,CLR,0.30,VWS V12.08,2013-02-13 23:52:00,
2013-02-13 18:57:00,44.1,39.5,29.74,SW,225,0.0,0.0,84,0.00,,CLR,0.30,VWS V12.08,2013-02-13 23:57:00,
2013-02-13 19:02:00,44.1,39.5,29.74,SW,225,0.0,0.0,84,0.00,,CLR,0.30,VWS V12.08,2013-02-14 00:02:00,
2013-02-13 19:07:00,44.1,39.5,29.75,SW,225,0.0,0.0,84,0.00,,CLR,0.30,VWS V12.08,2013-02-14 00:07:00,
2013-02-13 19:12:00,43.9,37.2,29.75,NW,315,2.2,2.2,77,0.00,,CLR,0.30,VWS V12.08,2013-02-14 00:12:00,
2013-02-13 19:17:00,43.7,36.6,29.75,West,270,1.8,2.2,76,0.00,,CLR,0.30,VWS V12.08,2013-02-14 00:17:00,
2013-02-13 19:22:00,43.5,36.1,29.77,NNE,22,0.0,1.8,75,0.00,,CLR,0.30,VWS V12.08,2013-02-14 00:22:00,
2013-02-13 19:27:00,43.2,35.8,29.77,SW,225,1.1,1.8,75,0.00,,CLR,0.30,VWS V12.08,2013-02-14 00:27:00,
2013-02-13 19:32:00,43.2,35.8,29.76,WSW,248,7.2,7.2,75,0.00,,CLR,0.30,VWS V12.08,2013-02-14 00:32:00,
2013-02-13 19:37:00,42.8,35.1,29.76,West,270,0.0,7.2,74,0.00,,CLR,0.30,VWS V12.08,2013-02-14 00:37:00,
2013-02-13 19:42:00,42.6,34.9,29.76,West,270,0.0,0.0,74,0.00,,CLR,0.30,VWS V12.08,2013-02-14 00:42:00,
2013-02-13 19:47:00,42.1,34.4,29.76,SW,225,1.1,1.1,74,0.00,,CLR,0.30,VWS V12.08,2013-02-14 00:47:00,
2013-02-13 19:52:00,42.1,34.1,29.77,WNW,292,2.9,2.9,73,0.00,,CLR,0.30,VWS V12.08,2013-02-14 00:52:00,
2013-02-13 19:57:00,41.7,33.7,29.77,NW,315,1.8,2.9,73,0.00,,CLR,0.30,VWS V12.08,2013-02-14 00:57:00,
2013-02-13 20:02:00,41.7,33.7,29.77,NW,315,1.8,1.8,73,0.00,,CLR,0.30,VWS V12.08,2013-02-14 01:02:00,
2013-02-13 20:07:00,41.7,33.7,29.77,NW,315,0.0,1.8,73,0.00,,CLR,0.30,VWS V12.08,2013-02-14 01:07:00,
2013-02-13 20:12:00,41.7,33.7,29.77,NW,315,0.0,1.8,73,0.00,,CLR,0.30,VWS V12.08,2013-02-14 01:12:00,
2013-02-13 20:17:00,41.7,33.7,29.77,NW,315,0.0,1.8,73,0.00,,CLR,0.30,VWS V12.08,2013-02-14 01:17:00,
2013-02-13 20:22:00,40.8,32.8,29.77,East,90,0.0,0.0,73,0.00,,CLR,0.30,VWS V12.08,2013-02-14 01:22:00,
2013-02-13 20:27:00,40.8,32.8,29.78,East,90,0.0,0.0,73,0.00,,CLR,0.30,VWS V12.08,2013-02-14 01:27:00,
2013-02-13 20:32:00,40.3,32.7,29.78,East,90,0.0,0.0,74,0.00,,CLR,0.30,VWS V12.08,2013-02-14 01:32:00,
2013-02-13 20:37:00,40.3,32.7,29.78,ESE,112,0.0,0.0,74,0.00,,CLR,0.30,VWS V12.08,2013-02-14 01:37:00,
2013-02-13 20:42:00,40.3,33.0,29.78,ESE,112,0.0,0.0,75,0.00,,CLR,0.30,VWS V12.08,2013-02-14 01:42:00,
2013-02-13 20:47:00,40.3,33.0,29.78,ESE,112,0.0,0.0,75,0.00,,CLR,0.30,VWS V12.08,2013-02-14 01:47:00,
2013-02-13 20:52:00,39.6,32.3,29.79,South,180,0.0,0.0,75,0.00,,CLR,0.30,VWS V12.08,2013-02-14 01:52:00,
2013-02-13 20:57:00,39.4,32.1,29.79,SSE,158,0.0,0.0,75,0.00,,CLR,0.30,VWS V12.08,2013-02-14 01:57:00,
2013-02-13 21:02:00,39.2,32.0,29.79,ESE,112,0.0,0.0,75,0.00,,CLR,0.30,VWS V12.08,2013-02-14 02:02:00,
2013-02-13 21:07:00,39.0,31.8,29.79,ESE,112,0.0,0.0,75,0.00,,CLR,0.30,VWS V12.08,2013-02-14 02:07:00,
2013-02-13 21:12:00,38.8,31.9,29.79,North,0,0.0,0.0,76,0.00,,CLR,0.30,VWS V12.08,2013-02-14 02:12:00,
2013-02-13 21:17:00,38.8,31.9,29.79,North,0,0.0,0.0,76,0.00,,CLR,0.30,VWS V12.08,2013-02-14 02:17:00,
2013-02-13 21:22:00,37.9,31.4,29.79,WNW,292,0.0,0.0,77,0.00,,CLR,0.30,VWS V12.08,2013-02-14 02:22:00,
2013-02-13 21:27:00,37.9,31.4,29.79,WNW,292,0.0,0.0,77,0.00,,CLR,0.30,VWS V12.08,2013-02-14 02:27:00,
2013-02-13 21:32:00,37.6,31.0,29.80,NE,45,0.0,0.0,77,0.00,,CLR,0.30,VWS V12.08,2013-02-14 02:32:00,
2013-02-13 21:37:00,37.6,31.0,29.80,NE,45,0.0,0.0,77,0.00,,CLR,0.30,VWS V12.08,2013-02-14 02:37:00,
2013-02-13 21:42:00,37.6,31.0,29.81,NE,45,0.0,0.0,77,0.00,,CLR,0.30,VWS V12.08,2013-02-14 02:42:00,
2013-02-13 21:47:00,37.4,31.2,29.80,ENE,68,0.0,0.0,78,0.00,,CLR,0.30,VWS V12.08,2013-02-14 02:47:00,
2013-02-13 21:52:00,37.2,31.0,29.81,ESE,112,0.0,0.0,78,0.00,,CLR,0.30,VWS V12.08,2013-02-14 02:52:00,
2013-02-13 21:57:00,37.0,30.8,29.81,ESE,112,0.0,0.0,78,0.00,,CLR,0.30,VWS V12.08,2013-02-14 02:57:00,
2013-02-13 22:02:00,37.0,30.8,29.81,ESE,112,0.0,0.0,78,0.00,,CLR,0.30,VWS V12.08,2013-02-14 03:02:00,
2013-02-13 22:07:00,36.7,30.5,29.82,ESE,112,0.0,0.0,78,0.00,,CLR,0.30,VWS V12.08,2013-02-14 03:07:00,
2013-02-13 22:12:00,36.5,30.6,29.82,ESE,112,0.0,0.0,79,0.00,,CLR,0.30,VWS V12.08,2013-02-14 03:12:00,
2013-02-13 22:17:00,36.5,30.6,29.82,ESE,112,0.0,0.0,79,0.00,,CLR,0.30,VWS V12.08,2013-02-14 03:17:00,
2013-02-13 22:22:00,36.1,30.3,29.82,ESE,112,0.0,0.0,79,0.00,,CLR,0.30,VWS V12.08,2013-02-14 03:22:00,
2013-02-13 22:27:00,36.1,30.3,29.82,ESE,112,0.0,0.0,79,0.00,,CLR,0.30,VWS V12.08,2013-02-14 03:27:00,
2013-02-13 22:32:00,36.1,30.3,29.83,ESE,112,0.0,0.0,79,0.00,,CLR,0.30,VWS V12.08,2013-02-14 03:32:00,
2013-02-13 22:37:00,36.1,30.3,29.83,ESE,112,1.3,1.3,79,0.00,,CLR,0.30,VWS V12.08,2013-02-14 03:37:00,
2013-02-13 22:42:00,36.0,30.1,29.82,SE,135,0.0,1.3,79,0.00,,CLR,0.30,VWS V12.08,2013-02-14 03:42:00,
2013-02-13 22:47:00,36.0,30.1,29.82,SE,135,0.0,1.3,79,0.00,,CLR,0.30,VWS V12.08,2013-02-14 03:47:00,
2013-02-13 22:52:00,36.0,30.4,29.82,ESE,112,0.0,1.3,80,0.00,,CLR,0.30,VWS V12.08,2013-02-14 03:52:00,
2013-02-13 22:57:00,35.8,29.9,29.82,ESE,112,0.0,1.3,79,0.00,,CLR,0.30,VWS V12.08,2013-02-14 03:57:00,
2013-02-13 23:02:00,35.8,30.2,29.83,ESE,112,0.0,0.0,80,0.00,,CLR,0.28,VWS V12.08,2013-02-14 04:02:00,
2013-02-13 23:07:00,35.4,29.9,29.83,ESE,112,0.0,0.0,80,0.00,,CLR,0.28,VWS V12.08,2013-02-14 04:07:00,
2013-02-13 23:13:00,35.4,29.9,29.83,ESE,112,0.0,0.0,80,0.00,,CLR,0.28,VWS V12.08,2013-02-14 04:13:00,
2013-02-13 23:18:00,35.2,29.7,29.83,ESE,112,0.0,0.0,80,0.00,,CLR,0.28,VWS V12.08,2013-02-14 04:18:00,
2013-02-13 23:23:00,35.2,29.7,29.83,ESE,112,0.0,0.0,80,0.00,,CLR,0.28,VWS V12.08,2013-02-14 04:23:00,
2013-02-13 23:28:00,34.9,29.4,29.83,ESE,112,0.0,0.0,80,0.00,,CLR,0.28,VWS V12.08,2013-02-14 04:28:00,
2013-02-13 23:33:00,34.7,29.2,29.83,ESE,112,0.0,0.0,80,0.00,,CLR,0.28,VWS V12.08,2013-02-14 04:33:00,
2013-02-13 23:38:00,34.7,29.2,29.83,ESE,112,0.0,0.0,80,0.00,,CLR,0.28,VWS V12.08,2013-02-14 04:38:00,
2013-02-13 23:43:00,34.7,29.2,29.84,East,90,0.0,0.0,80,0.00,,CLR,0.28,VWS V12.08,2013-02-14 04:43:00,
2013-02-13 23:48:00,34.3,28.8,29.84,East,90,0.0,0.0,80,0.00,,CLR,0.28,VWS V12.08,2013-02-14 04:48:00,
2013-02-13 23:53:00,34.3,28.8,29.84,East,90,0.0,0.0,80,0.00,,CLR,0.28,VWS V12.08,2013-02-14 04:53:00,
2013-02-13 23:58:00,34.2,28.6,29.85,East,90,0.0,0.0,80,0.00,,CLR,0.28,VWS V12.08,2013-02-14 04:58:00,